Hourly Data Report for July 26, 2021

BORDEN AWOS
ONTARIO
Current Station Operator: DND

44°16'20.000" N
79°54'42.000" W
222.50 m
611B002
71534
YBN

Download Data

Hourly Data (July 2021)
Hourly Data Report for July 26, 2021
TIME
LST
Temp Definition
°C
Dew Point Definition
°C
Rel Hum Definition
%
Precip. Amount Definition
mm

Wind Dir Definition
10's deg

Wind Spd Definition
km/h
Visibility Definition
km
Stn Press Definition
kPa
Hmdx Definition


Wind Chill Definition


Weather Definition


00:00 14.9 13.6 92   18 4 8.0 98.67     LegendNANA
01:00 14.3 13.7 96     0 5.6 98.67     LegendNANA
02:00 13.6 13.2 97   21 4 6.4 98.65     LegendNANA
03:00 13.3 13.0 98   23 6 6.4 98.64     LegendNANA
04:00 12.8 12.1 96     0 8.0 98.64     LegendNANA
05:00 13.2 12.6 96   21 6 8.0 98.67     LegendNANA
06:00 15.6 14.4 93   21 4 9.7 98.68     LegendNANA
07:00 20.0 16.1 78   23 4 12.9 98.72 25   LegendNANA
08:00 23.5 16.3 64   28 4 14.5 98.75 28   LegendNANA
09:00 26.8 15.9 51   26 15 14.5 98.74 31   LegendNANA
10:00 28.3 15.0 44   25 19 14.5 98.70 32   LegendNANA
11:00 29.5 14.5 40   26 17 14.5 98.69 33   LegendNANA
12:00 29.6 14.2 39   30 15 14.5 98.68 33   LegendNANA
13:00 28.9 14.6 42   32 13 14.5 98.69 33   LegendNANA
14:00 27.2 17.0 54   34 13 14.5 98.73 32   LegendNANA
15:00 28.7 14.8 43   34 13 14.5 98.72 33   LegendNANA
16:00 28.8 15.4 44   35 11 14.5 98.72 33   LegendNANA
17:00 27.8 15.0 46   33 7 14.5 98.70 32   LegendNANA
18:00 26.2 15.0 50   33 11 14.5 98.72 30   LegendNANA
19:00 23.8 15.9 61   34 9 14.5 98.73 28   LegendNANA
20:00 19.9 16.7 82   25 4 14.5 98.77     LegendNANA
21:00 17.0 15.3 90   11 4 14.5 98.79     LegendNANA
22:00 15.6 15.2 98     0 12.9 98.82     LegendNANA
23:00 14.8 13.9 94   20 4 9.7 98.83     LegendNANA

Notes on Data Quality.

Legend

  • E = Estimated
  • M = Missing
  • NA = Not Available*
  • [empty] = Indicates an unobserved value
Date modified: